Newport, AR

4:34 PM CST on December 05, 2019 (GMT -0600)
Newport

Weather History for KM19 - November, 2019

Change the Weather History Date:

Monday, November 18, 2019

  Actual Average (WUND) Record (WUND)
Temperature  
Mean Temperature 46 °F -  
Max Temperature 57 °F - - (-1)
Min Temperature 36 °F - - (-1)
Degree Days  
Heating Degree Days 18    
Moisture  
Dew Point 39 °F    
Average Humidity 72    
Maximum Humidity 93    
Minimum Humidity 49    
Precipitation  
Precipitation 0.00 in - - ()
Sea Level Pressure  
Sea Level Pressure 29.88 in    
Wind  
Wind Speed 7 mph ()    
Max Wind Speed 14 mph    
Max Gust Speed -    
Visibility 10.0 miles    
Events      
Averages and records for this station are not official NWS values.
T = Trace of Precipitation, MM = Missing Value Source: Averaged Metar Reports

Daily Weather History Graph

Daily Weather History Graph

Search for Another Location

Airport or City:

Astronomy

Nov. 18, 2019 Rise Set
Actual Time 6:43 AM CST 4:56 PM CST
Civil Twilight 6:15 AM CST 5:23 PM CST
Nautical Twilight 5:44 AM CST 5:54 PM CST
Astronomical Twilight 5:14 AM CST 6:24 PM CST
Moon 10:41 PM CST (11/18) 12:13 PM CST (11/18)
Length of Visible Light 11h 07m
Length of Day
10h 12m
Waning Gibbous, 63% of the Moon is Illuminated
Nov 18
Waning Gibbous
Nov 19
Last Quarter
Nov 26
New
Dec 4
First Quarter
Dec 11
Full

Hourly Weather History & Observations

Time (CST) Temp. Windchill Dew Point Humidity Pressure Visibility Wind Dir Wind Speed Gust Speed Precip Events Conditions
1:56 AM 39.9 °F 35.8 °F 35.1 °F 83% 29.94 in 10.0 mi WNW 5.8 mph - N/A   Clear
2:56 AM 36.0 °F 33.3 °F 33.1 °F 89% 29.94 in 10.0 mi WSW 3.5 mph - N/A   Clear
3:56 AM 36.0 °F 30.3 °F 34.0 °F 93% 29.94 in 10.0 mi West 6.9 mph - N/A   Clear
5:56 AM 36.0 °F 33.3 °F 33.1 °F 89% 29.94 in 10.0 mi WSW 3.5 mph - N/A   Clear
6:56 AM 36.0 °F 33.3 °F 34.0 °F 93% 29.96 in 10.0 mi West 3.5 mph - N/A   Clear
8:56 AM 43.0 °F 39.5 °F 39.0 °F 86% 29.97 in 10.0 mi West 5.8 mph - N/A   Clear
9:56 AM 46.9 °F - 41.0 °F 80% 29.99 in 10.0 mi West 6.9 mph - N/A   Clear
10:56 AM 52.0 °F - 39.9 °F 63% 29.99 in 10.0 mi WSW 5.8 mph - N/A   Clear
11:56 AM 53.1 °F - 39.9 °F 61% 29.90 in 10.0 mi South 10.4 mph - N/A   Clear
12:56 PM 54.0 °F - 37.9 °F 55% 29.88 in 10.0 mi SSW 8.1 mph - N/A   Clear
1:56 PM 55.9 °F - 37.9 °F 51% 29.86 in 10.0 mi SSW 10.4 mph - N/A   Clear
2:56 PM 57.0 °F - 37.9 °F 49% 29.84 in 10.0 mi SSW 11.5 mph - N/A   Mostly Cloudy
3:56 PM 55.0 °F - 39.0 °F 55% 29.82 in 10.0 mi South 13.8 mph - N/A   Overcast
4:56 PM 53.1 °F - 41.0 °F 64% 29.82 in 10.0 mi South 11.5 mph - N/A   Overcast
5:56 PM 51.1 °F - 41.0 °F 68% 29.84 in 10.0 mi South 10.4 mph - N/A   Overcast
6:56 PM 50.0 °F - 41.0 °F 71% 29.84 in 10.0 mi South 10.4 mph - N/A   Overcast
7:56 PM 50.0 °F - 41.0 °F 71% 29.83 in 10.0 mi South 11.5 mph - N/A   Overcast
8:56 PM 50.0 °F - 39.9 °F 68% 29.81 in 10.0 mi South 10.4 mph - N/A   Overcast
9:56 PM 50.0 °F - 41.0 °F 71% 29.80 in 10.0 mi South 12.7 mph - N/A   Overcast
10:56 PM 48.9 °F - 42.1 °F 77% 29.81 in 10.0 mi SSW 8.1 mph - 0.00 in   Overcast
11:56 PM 48.0 °F - 43.0 °F 83% 29.79 in 10.0 mi SSW 9.2 mph - 0.00 in   Overcast